Voltar ao catálogo

ATLAS 5 CENTAUR DEB

LostHEO
NORAD 44672·DEBRIS·🇺🇸 United States

Lançado Oct 17, 2018 de Cape Canaveral Space Force Station

Loading…

Próximas Passagens (próximas 24 horas)

TLE

ObsoletoSource: Space-Track

Época: Nov 21, 2021, 11:59 UTC

1 44672U 18079AJ  21325.49998394 -.00000094  00000-0  00000-0 0  9990
2 44672  10.4733 182.9042 5795822  54.4763 346.8961  1.84352227 16431

Acompanhe ATLAS 5 CENTAUR DEB em tempo real com AllMySat

Download on the App Store